Weather History for Poteau, OK

Change the Weather History Date:

Tuesday, March 26, 2013

  Actual Average (KFSM) Record (KFSM)
Temperature  
Mean Temperature 38 °F 56 °F  
Max Temperature 51 °F 68 °F 85 °F (1925)
Min Temperature 26 °F 44 °F 15 °F (1955)
Degree Days  
Heating Degree Days 26 10  
Month to date heating degree days 341  
Since 1 July heating degree days 3014  
Cooling Degree Days 0 1  
Month to date cooling degree days 4  
Year to date cooling degree days 5  
Moisture  
Dew Point 26 °F    
Average Humidity 63    
Maximum Humidity 93    
Minimum Humidity 37    
Precipitation  
Precipitation 0.00 in 0.13 in 1.47 in (1902)
Month to date precipitation 3.16  
Year to date precipitation 8.73  
Sea Level Pressure  
Sea Level Pressure 30.40 in    
Wind  
Wind Speed 3 mph (NNW)    
Max Wind Speed 10 mph    
Max Gust Speed -    
Visibility 10 miles    
Events      
T = Trace of Precipitation, MM = Missing Value Source: NWS Daily Summary

Daily Weather History Graph

Daily Weather History Graph

Search for Another Location

Airport:

Trip Planner

Search our weather history database for the weather conditions in past years. The results will help you decide how hot, cold, wet, or windy it might be!

Date:

Astronomy

Mar. 26, 2013 Rise Set
Actual Time 7:13 AM CDT 7:35 PM CDT
Civil Twilight 6:47 AM CDT 8:00 PM CDT
Nautical Twilight 6:18 AM CDT 8:30 PM CDT
Astronomical Twilight 5:48 AM CDT 9:00 PM CDT
Moon 7:12 PM CDT (3/26) 6:29 AM CDT (3/26)
Length of Visible Light 13h 12m
Length of Day
12h 21m
Waxing Gibbous, 99% of the Moon is Illuminated
Mar 26
Waxing Gibbous
Mar 27
Full
Apr 2
Last Quarter
Apr 10
New
Apr 18
First Quarter

Hourly Weather History & Observations

Time (CDT) Temp. Windchill Dew Point Humidity Pressure Visibility Wind Dir Wind Speed Gust Speed Precip Events Conditions
12:15 AM 35.6 °F - 23.0 °F 60% 30.40 in 10.0 mi Calm Calm - N/A   Clear
12:35 AM 33.8 °F 30.8 °F 21.2 °F 60% 30.41 in 10.0 mi NW 3.5 mph - N/A   Clear
12:55 AM 33.8 °F - 21.2 °F 60% 30.40 in 10.0 mi Calm Calm - N/A   Clear
1:15 AM 33.8 °F - 23.0 °F 65% 30.40 in 10.0 mi Calm Calm - N/A   Clear
1:35 AM 33.8 °F - 23.0 °F 65% 30.40 in 10.0 mi Calm Calm - N/A   Clear
1:55 AM 33.8 °F - 23.0 °F 65% 30.40 in 10.0 mi Calm Calm - N/A   Clear
2:15 AM 33.8 °F 30.8 °F 23.0 °F 65% 30.39 in 10.0 mi NW 3.5 mph - N/A   Clear
2:35 AM 33.8 °F 29.6 °F 23.0 °F 65% 30.39 in 10.0 mi NW 4.6 mph - N/A   Clear
2:55 AM 32.0 °F 27.5 °F 23.0 °F 69% 30.39 in 10.0 mi NW 4.6 mph - N/A   Clear
3:15 AM 32.0 °F 27.5 °F 23.0 °F 69% 30.39 in 10.0 mi NW 4.6 mph - N/A   Clear
3:35 AM 32.0 °F 26.4 °F 23.0 °F 69% 30.39 in 10.0 mi NW 5.8 mph - N/A   Clear
3:55 AM 32.0 °F 26.4 °F 23.0 °F 69% 30.39 in 10.0 mi NW 5.8 mph - N/A   Clear
4:15 AM 33.8 °F 28.6 °F 24.8 °F 70% 30.39 in 10.0 mi NW 5.8 mph - N/A   Clear
4:35 AM 32.0 °F 27.5 °F 24.8 °F 75% 30.39 in 10.0 mi NNW 4.6 mph - N/A   Clear
4:55 AM 32.0 °F 28.7 °F 24.8 °F 75% 30.39 in 10.0 mi NNW 3.5 mph - N/A   Clear
5:15 AM 32.0 °F 26.4 °F 24.8 °F 75% 30.39 in 10.0 mi NNW 5.8 mph - N/A   Clear
5:35 AM 32.0 °F - 24.8 °F 75% 30.39 in 10.0 mi Calm Calm - N/A   Clear
5:55 AM 30.2 °F - 23.0 °F 75% 30.40 in 10.0 mi Calm Calm - N/A   Clear
6:15 AM 32.0 °F 28.7 °F 24.8 °F 75% 30.40 in 10.0 mi NNW 3.5 mph - N/A   Clear
6:35 AM 32.0 °F - 24.8 °F 75% 30.41 in 10.0 mi Calm Calm - N/A   Clear
6:55 AM 30.2 °F - 24.8 °F 80% 30.42 in 10.0 mi Calm Calm - N/A   Clear
7:15 AM 30.2 °F - 26.6 °F 86% 30.42 in 10.0 mi Calm Calm - N/A   Clear
7:35 AM 28.4 °F - 24.8 °F 86% 30.43 in 10.0 mi Calm Calm - N/A   Clear
7:55 AM 26.6 °F - 24.8 °F 93% 30.44 in 10.0 mi Calm Calm - N/A   Clear
8:15 AM 32.0 °F - 26.6 °F 80% 30.44 in 10.0 mi Calm Calm - N/A   Clear
8:35 AM 32.0 °F - 26.6 °F 80% 30.45 in 10.0 mi Calm Calm - N/A   Clear
8:55 AM 32.0 °F - 26.6 °F 80% 30.46 in 10.0 mi Calm Calm - N/A   Clear
9:15 AM 35.6 °F 29.9 °F 28.4 °F 75% 30.46 in 10.0 mi North 6.9 mph - N/A   Scattered Clouds
9:35 AM 35.6 °F 29.9 °F 28.4 °F 75% 30.47 in 10.0 mi North 6.9 mph - N/A   Clear
9:55 AM 37.4 °F 31.4 °F 28.4 °F 70% 30.48 in 10.0 mi North 8.1 mph - N/A   Clear
10:15 AM 37.4 °F 30.8 °F 28.4 °F 70% 30.48 in 10.0 mi North 9.2 mph - N/A   Clear
10:35 AM 37.4 °F 30.8 °F 26.6 °F 65% 30.48 in 10.0 mi North 9.2 mph - N/A   Clear
10:55 AM 39.2 °F 33.0 °F 26.6 °F 61% 30.48 in 10.0 mi NNE 9.2 mph - N/A   Scattered Clouds
11:15 AM 41.0 °F 34.7 °F 26.6 °F 57% 30.48 in 10.0 mi NNW 10.4 mph - N/A   Scattered Clouds
11:35 AM 41.0 °F 35.2 °F 24.8 °F 53% 30.48 in 10.0 mi NW 9.2 mph - N/A   Scattered Clouds
11:55 AM 41.0 °F 34.7 °F 24.8 °F 53% 30.47 in 10.0 mi North 10.4 mph - N/A   Clear
12:15 PM 42.8 °F 37.0 °F 24.8 °F 49% 30.47 in 10.0 mi North 10.4 mph - N/A   Scattered Clouds
12:35 PM 42.8 °F 38.6 °F 23.0 °F 46% 30.46 in 10.0 mi NNW 6.9 mph - N/A   Clear
12:55 PM 42.8 °F 40.1 °F 24.8 °F 49% 30.46 in 10.0 mi NW 4.6 mph - N/A   Clear
1:15 PM 42.8 °F 39.3 °F 24.8 °F 49% 30.45 in 10.0 mi NE 5.8 mph - N/A   Clear
1:35 PM 44.6 °F 39.7 °F 26.6 °F 49% 30.44 in 10.0 mi North 9.2 mph - N/A   Clear
1:55 PM 42.8 °F 41.1 °F 23.0 °F 46% 30.43 in 10.0 mi ESE 3.5 mph - N/A   Clear
2:15 PM 46.4 °F - 26.6 °F 46% 30.42 in 10.0 mi Calm Calm - N/A   Clear
2:35 PM 46.4 °F 43.5 °F 26.6 °F 46% 30.41 in 10.0 mi WSW 5.8 mph - N/A   Clear
2:55 PM 46.4 °F 45.2 °F 26.6 °F 46% 30.40 in 10.0 mi North 3.5 mph - N/A   Clear
3:15 PM 48.2 °F - 24.8 °F 40% 30.40 in 10.0 mi West 4.6 mph - N/A   Clear
3:35 PM 50.0 °F - 26.6 °F 40% 30.39 in 10.0 mi West 8.1 mph - N/A   Clear
3:55 PM 50.0 °F - 24.8 °F 37% 30.38 in 10.0 mi West 4.6 mph - N/A   Clear
4:15 PM 51.8 °F - 26.6 °F 38% 30.37 in 10.0 mi WSW 5.8 mph - N/A   Clear
4:35 PM 51.8 °F - 26.6 °F 38% 30.36 in 10.0 mi Calm Calm - N/A   Clear
4:55 PM 51.8 °F - 26.6 °F 38% 30.36 in 10.0 mi Calm Calm - N/A   Clear
5:15 PM 51.8 °F - 26.6 °F 38% 30.35 in 10.0 mi Calm Calm - N/A   Clear
5:35 PM 51.8 °F - 26.6 °F 38% 30.35 in 10.0 mi ESE 3.5 mph - N/A   Clear
5:55 PM 51.8 °F - 26.6 °F 38% 30.35 in 10.0 mi Calm Calm - N/A   Clear
6:15 PM 51.8 °F - 26.6 °F 38% 30.35 in 10.0 mi NE 3.5 mph - N/A   Clear
6:35 PM 51.8 °F - 28.4 °F 41% 30.34 in 10.0 mi Calm Calm - N/A   Clear
6:55 PM 51.8 °F - 26.6 °F 38% 30.34 in 10.0 mi Calm Calm - N/A   Clear
7:15 PM 48.2 °F - 26.6 °F 43% 30.34 in 10.0 mi Calm Calm - N/A   Clear
7:35 PM 44.6 °F - 26.6 °F 49% 30.34 in 10.0 mi Calm Calm - N/A   Clear
7:55 PM 44.6 °F - 24.8 °F 46% 30.34 in 10.0 mi Calm Calm - N/A   Clear
8:15 PM 42.8 °F - 26.6 °F 53% 30.34 in 10.0 mi Calm Calm - N/A   Clear
8:35 PM 39.2 °F - 30.2 °F 70% 30.34 in 10.0 mi Calm Calm - N/A   Clear
8:55 PM 39.2 °F - 30.2 °F 70% 30.34 in 10.0 mi Calm Calm - N/A   Clear
9:15 PM 37.4 °F - 28.4 °F 70% 30.35 in 10.0 mi Calm Calm - N/A   Clear
9:35 PM 37.4 °F - 30.2 °F 75% 30.35 in 10.0 mi Calm Calm - N/A   Clear
9:55 PM 35.6 °F - 32.0 °F 87% 30.36 in 10.0 mi Calm Calm - N/A   Clear
10:15 PM 35.6 °F - 32.0 °F 87% 30.36 in 10.0 mi Calm Calm - N/A   Clear
10:35 PM 33.8 °F - 30.2 °F 87% 30.36 in 10.0 mi Calm Calm - N/A   Clear
10:55 PM 35.6 °F - 32.0 °F 87% 30.36 in 10.0 mi Calm Calm - N/A   Clear
11:15 PM 33.8 °F - 30.2 °F 87% 30.35 in 10.0 mi Calm Calm - N/A   Clear
11:35 PM 33.8 °F - 30.2 °F 87% 30.35 in 10.0 mi Calm Calm - N/A   Clear
11:55 PM 32.0 °F - 30.2 °F 93% 30.36 in 10.0 mi Calm Calm - N/A   Clear